Time,TemperatureF,DewpointF,PressureIn,WindDirection,WindDirectionDegrees,WindSpeedMPH,WindSpeedGustMPH,Humidity,HourlyPrecipIn,Conditions,Clouds,dailyrainin,SoftwareType,DateUTC
2013-05-28 00:00:00,54.7,33.8,30.50,ESE,112,1.0,3.0,45,0.00,,,0.00,meteohub,2013-05-28 06:00:00,
2013-05-28 00:05:00,54.3,32.9,30.50,ESE,112,0.0,3.0,44,0.00,,,0.00,meteohub,2013-05-28 06:05:00,
2013-05-28 00:10:00,53.8,32.9,30.50,NNE,22,2.0,3.0,45,0.00,,,0.00,meteohub,2013-05-28 06:10:00,
2013-05-28 00:15:00,53.8,32.9,30.50,SSE,158,1.0,3.0,45,0.00,,,0.00,meteohub,2013-05-28 06:15:00,
2013-05-28 00:21:00,54.0,33.6,30.47,East,90,0.0,3.0,46,0.00,,,0.00,meteohub,2013-05-28 06:21:00,
2013-05-28 00:26:00,54.3,33.4,30.47,ESE,112,0.0,3.0,45,0.00,,,0.00,meteohub,2013-05-28 06:26:00,
2013-05-28 00:31:00,54.0,33.1,30.47,ESE,112,3.0,3.0,45,0.00,,,0.00,meteohub,2013-05-28 06:31:00,
2013-05-28 00:36:00,53.6,32.9,30.50,ESE,112,2.0,3.0,45,0.00,,,0.00,meteohub,2013-05-28 06:36:00,
2013-05-28 00:41:00,53.8,33.4,30.50,ESE,112,3.0,3.0,46,0.00,,,0.00,meteohub,2013-05-28 06:41:00,
2013-05-28 00:46:00,54.0,33.1,30.47,SSE,158,0.0,3.0,45,0.00,,,0.00,meteohub,2013-05-28 06:46:00,
2013-05-28 00:52:00,53.1,32.9,30.47,ENE,68,0.0,3.0,46,0.00,,,0.00,meteohub,2013-05-28 06:52:00,
2013-05-28 00:57:00,52.7,32.5,30.47,ESE,112,0.0,2.0,46,0.00,,,0.00,meteohub,2013-05-28 06:57:00,
2013-05-28 01:02:00,52.7,32.5,30.47,ESE,112,0.0,2.0,46,0.00,,,0.00,meteohub,2013-05-28 07:02:00,
2013-05-28 01:07:00,52.2,32.0,30.47,NNE,22,2.0,2.0,46,0.00,,,0.00,meteohub,2013-05-28 07:07:00,
2013-05-28 01:12:00,52.3,32.7,30.47,NNE,22,0.0,3.0,47,0.00,,,0.00,meteohub,2013-05-28 07:12:00,
2013-05-28 01:17:00,52.3,32.7,30.47,East,90,0.0,3.0,47,0.00,,,0.00,meteohub,2013-05-28 07:17:00,
2013-05-28 01:22:00,51.8,32.7,30.47,East,90,1.0,3.0,48,0.00,,,0.00,meteohub,2013-05-28 07:22:00,
2013-05-28 01:27:00,51.6,32.5,30.47,ENE,68,0.0,3.0,48,0.00,,,0.00,meteohub,2013-05-28 07:27:00,
2013-05-28 01:32:00,52.0,33.4,30.47,East,90,3.0,3.0,49,0.00,,,0.00,meteohub,2013-05-28 07:32:00,
2013-05-28 01:37:00,51.8,32.7,30.47,East,90,1.0,3.0,48,0.00,,,0.00,meteohub,2013-05-28 07:37:00,
2013-05-28 01:42:00,52.0,33.4,30.47,ESE,112,2.0,3.0,49,0.00,,,0.00,meteohub,2013-05-28 07:42:00,
2013-05-28 01:47:00,51.6,33.1,30.47,ESE,112,2.0,3.0,49,0.00,,,0.00,meteohub,2013-05-28 07:47:00,
2013-05-28 01:52:00,51.6,33.1,30.47,East,90,0.0,3.0,49,0.00,,,0.00,meteohub,2013-05-28 07:52:00,
2013-05-28 01:57:00,50.9,32.9,30.47,East,90,2.0,3.0,50,0.00,,,0.00,meteohub,2013-05-28 07:57:00,
2013-05-28 02:02:00,51.6,34.2,30.47,ESE,112,3.0,3.0,51,0.00,,,0.00,meteohub,2013-05-28 08:02:00,
2013-05-28 02:07:00,52.5,34.9,30.47,SSE,158,4.0,4.0,51,0.00,,,0.00,meteohub,2013-05-28 08:07:00,
2013-05-28 02:12:00,52.9,35.2,30.47,NNE,22,4.0,6.0,51,0.00,,,0.00,meteohub,2013-05-28 08:12:00,
2013-05-28 02:17:00,52.2,34.2,30.47,East,90,2.0,6.0,50,0.00,,,0.00,meteohub,2013-05-28 08:17:00,
2013-05-28 02:22:00,52.2,34.2,30.47,NNE,22,3.0,5.0,50,0.00,,,0.00,meteohub,2013-05-28 08:22:00,
2013-05-28 02:27:00,51.6,33.6,30.47,NNW,338,1.0,4.0,50,0.00,,,0.00,meteohub,2013-05-28 08:27:00,
2013-05-28 02:32:00,50.7,33.3,30.47,SSE,158,2.0,3.0,51,0.00,,,0.00,meteohub,2013-05-28 08:32:00,
2013-05-28 02:37:00,50.2,32.7,30.47,NNE,22,0.0,3.0,51,0.00,,,0.00,meteohub,2013-05-28 08:37:00,
2013-05-28 02:42:00,50.2,33.3,30.47,ENE,68,0.0,2.0,52,0.00,,,0.00,meteohub,2013-05-28 08:42:00,
2013-05-28 02:47:00,50.2,33.3,30.47,ENE,68,0.0,2.0,52,0.00,,,0.00,meteohub,2013-05-28 08:47:00,
2013-05-28 02:52:00,50.0,33.1,30.47,ENE,68,0.0,2.0,52,0.00,,,0.00,meteohub,2013-05-28 08:52:00,
2013-05-28 02:57:00,49.6,33.3,30.47,ENE,68,0.0,2.0,53,0.00,,,0.00,meteohub,2013-05-28 08:57:00,
2013-05-28 03:02:00,49.5,33.6,30.47,ENE,68,2.0,2.0,54,0.00,,,0.00,meteohub,2013-05-28 09:02:00,
2013-05-28 03:07:00,49.5,34.0,30.47,NNW,338,0.0,2.0,55,0.00,,,0.00,meteohub,2013-05-28 09:07:00,
2013-05-28 03:12:00,49.3,34.3,30.47,NNE,22,2.0,2.0,56,0.00,,,0.00,meteohub,2013-05-28 09:12:00,
2013-05-28 03:17:00,48.9,34.0,30.47,NNE,22,1.0,3.0,56,0.00,,,0.00,meteohub,2013-05-28 09:17:00,
2013-05-28 03:22:00,48.6,33.1,30.47,ENE,68,1.0,3.0,55,0.00,,,0.00,meteohub,2013-05-28 09:22:00,
2013-05-28 03:27:00,48.7,33.3,30.47,NE,45,1.0,3.0,55,0.00,,,0.00,meteohub,2013-05-28 09:27:00,
2013-05-28 03:32:00,49.1,32.7,30.47,ENE,68,1.0,3.0,53,0.00,,,0.00,meteohub,2013-05-28 09:32:00,
2013-05-28 03:37:00,50.4,32.9,30.47,NNE,22,4.0,4.0,51,0.00,,,0.00,meteohub,2013-05-28 09:37:00,
2013-05-28 03:42:00,52.0,32.9,30.47,NNW,338,8.0,8.0,48,0.00,,,0.00,meteohub,2013-05-28 09:42:00,
2013-05-28 03:47:00,53.4,33.8,30.50,NNW,338,2.0,9.0,47,0.00,,,0.00,meteohub,2013-05-28 09:47:00,
2013-05-28 03:52:00,51.6,33.1,30.50,NNW,338,3.0,9.0,49,0.00,,,0.00,meteohub,2013-05-28 09:52:00,
2013-05-28 03:57:00,50.7,32.4,30.50,ESE,112,0.0,9.0,49,0.00,,,0.00,meteohub,2013-05-28 09:57:00,
2013-05-28 04:02:00,51.3,32.4,30.50,NNW,338,2.0,4.0,48,0.00,,,0.00,meteohub,2013-05-28 10:02:00,
2013-05-28 04:07:00,52.0,32.4,30.50,NNW,338,4.0,4.0,47,0.00,,,0.00,meteohub,2013-05-28 10:07:00,
2013-05-28 04:12:00,52.7,33.1,30.50,WSW,248,2.0,4.0,47,0.00,,,0.00,meteohub,2013-05-28 10:12:00,
2013-05-28 04:17:00,52.0,32.4,30.50,WNW,292,4.0,4.0,47,0.00,,,0.00,meteohub,2013-05-28 10:17:00,
2013-05-28 04:22:00,52.9,33.3,30.50,WNW,292,4.0,6.0,47,0.00,,,0.00,meteohub,2013-05-28 10:22:00,
2013-05-28 04:28:00,51.6,32.5,30.50,NNE,22,2.0,6.0,48,0.00,,,0.00,meteohub,2013-05-28 10:28:00,
2013-05-28 04:33:00,50.7,31.8,30.50,ENE,68,0.0,6.0,48,0.00,,,0.00,meteohub,2013-05-28 10:33:00,
2013-05-28 04:38:00,50.4,31.5,30.50,NNE,22,1.0,6.0,48,0.00,,,0.00,meteohub,2013-05-28 10:38:00,
2013-05-28 04:43:00,50.0,31.1,30.50,NNW,338,0.0,3.0,48,0.00,,,0.00,meteohub,2013-05-28 10:43:00,
2013-05-28 04:48:00,49.3,30.9,30.50,NNE,22,1.0,2.0,49,0.00,,,0.00,meteohub,2013-05-28 10:48:00,
2013-05-28 04:54:00,49.3,30.9,30.50,NNW,338,1.0,3.0,49,0.00,,,0.00,meteohub,2013-05-28 10:54:00,
2013-05-28 04:59:00,49.1,30.7,30.50,NE,45,0.0,3.0,49,0.00,,,0.00,meteohub,2013-05-28 10:59:00,
2013-05-28 05:04:00,48.9,30.6,30.50,NNE,22,0.0,3.0,49,0.00,,,0.00,meteohub,2013-05-28 11:04:00,
2013-05-28 05:09:00,48.6,30.4,30.50,ENE,68,0.0,2.0,49,0.00,,,0.00,meteohub,2013-05-28 11:09:00,
2013-05-28 05:14:00,48.9,30.6,30.50,NNE,22,2.0,2.0,49,0.00,,,0.00,meteohub,2013-05-28 11:14:00,
2013-05-28 05:19:00,50.2,31.3,30.50,NNW,338,3.0,3.0,48,0.00,,,0.00,meteohub,2013-05-28 11:19:00,
2013-05-28 05:24:00,49.8,30.9,30.50,ESE,112,2.0,3.0,48,0.00,,,0.00,meteohub,2013-05-28 11:24:00,
2013-05-28 05:29:00,49.8,30.9,30.50,WNW,292,0.0,3.0,48,0.00,,,0.00,meteohub,2013-05-28 11:29:00,
2013-05-28 05:34:00,49.5,30.6,30.50,East,90,2.0,3.0,48,0.00,,,0.00,meteohub,2013-05-28 11:34:00,
2013-05-28 05:39:00,49.3,30.4,30.50,ENE,68,2.0,3.0,48,0.00,,,0.00,meteohub,2013-05-28 11:39:00,
2013-05-28 05:44:00,49.3,30.4,30.50,ENE,68,2.0,3.0,48,0.00,,,0.00,meteohub,2013-05-28 11:44:00,
2013-05-28 05:49:00,49.6,30.7,30.50,East,90,0.0,2.0,48,0.00,,,0.00,meteohub,2013-05-28 11:49:00,
2013-05-28 05:54:00,49.8,30.9,30.50,NNW,338,1.0,6.0,48,0.00,,,0.00,meteohub,2013-05-28 11:54:00,
2013-05-28 05:59:00,49.1,30.4,30.50,East,90,0.0,6.0,48,0.00,,,0.00,meteohub,2013-05-28 11:59:00,
2013-05-28 06:04:00,48.7,30.6,30.50,SSE,158,0.0,6.0,49,0.00,,,0.00,meteohub,2013-05-28 12:04:00,
2013-05-28 06:09:00,48.6,30.7,30.50,SSE,158,3.0,3.0,50,0.00,,,0.00,meteohub,2013-05-28 12:09:00,
2013-05-28 06:15:00,48.4,31.1,30.50,SE,135,4.0,5.0,51,0.00,,,0.00,meteohub,2013-05-28 12:15:00,
2013-05-28 06:20:00,49.6,32.4,30.50,SSE,158,3.0,5.0,51,0.00,,,0.00,meteohub,2013-05-28 12:20:00,
2013-05-28 06:25:00,49.1,31.8,30.50,ESE,112,2.0,6.0,51,0.00,,,0.00,meteohub,2013-05-28 12:25:00,
2013-05-28 06:30:00,49.1,31.8,30.50,ESE,112,3.0,8.0,51,0.00,,,0.00,meteohub,2013-05-28 12:30:00,
2013-05-28 07:25:00,53.2,41.4,30.50,ESE,112,3.0,3.0,64,0.00,,,0.00,meteohub,2013-05-28 13:25:00,
2013-05-28 07:30:00,54.9,40.8,30.50,SSW,202,2.0,4.0,59,0.00,,,0.00,meteohub,2013-05-28 13:30:00,
2013-05-28 07:35:00,56.3,41.4,30.50,SSE,158,3.0,4.0,57,0.00,,,0.00,meteohub,2013-05-28 13:35:00,
2013-05-28 07:40:00,57.2,40.8,30.50,SSW,202,3.0,4.0,54,0.00,,,0.00,meteohub,2013-05-28 13:40:00,
2013-05-28 07:45:00,57.9,40.5,30.50,SSW,202,4.0,4.0,52,0.00,,,0.00,meteohub,2013-05-28 13:45:00,
2013-05-28 07:50:00,58.8,40.8,30.50,SSW,202,2.0,4.0,51,0.00,,,0.00,meteohub,2013-05-28 13:50:00,
2013-05-28 07:55:00,60.1,41.4,30.50,South,180,2.0,4.0,50,0.00,,,0.00,meteohub,2013-05-28 13:55:00,
2013-05-28 08:00:00,61.0,41.2,30.50,SSE,158,3.0,4.0,48,0.00,,,0.00,meteohub,2013-05-28 14:00:00,
2013-05-28 08:05:00,60.6,40.3,30.50,SSE,158,2.0,4.0,47,0.00,,,0.00,meteohub,2013-05-28 14:05:00,
2013-05-28 08:11:00,61.5,41.2,30.50,East,90,1.0,4.0,47,0.00,,,0.00,meteohub,2013-05-28 14:11:00,
2013-05-28 08:16:00,62.1,41.5,30.50,SSE,158,3.0,4.0,47,0.00,,,0.00,meteohub,2013-05-28 14:16:00,
2013-05-28 08:21:00,63.5,42.4,30.50,WNW,292,2.0,4.0,46,0.00,,,0.00,meteohub,2013-05-28 14:21:00,
2013-05-28 08:26:00,63.0,40.8,30.50,NNW,338,6.0,6.0,44,0.00,,,0.00,meteohub,2013-05-28 14:26:00,
2013-05-28 08:31:00,64.6,42.3,30.50,NNW,338,4.0,8.0,44,0.00,,,0.00,meteohub,2013-05-28 14:31:00,
2013-05-28 08:36:00,63.3,41.0,30.50,NNW,338,6.0,8.0,44,0.00,,,0.00,meteohub,2013-05-28 14:36:00,
2013-05-28 08:41:00,63.1,40.8,30.50,NNE,22,4.0,6.0,44,0.00,,,0.00,meteohub,2013-05-28 14:41:00,
2013-05-28 08:46:00,63.1,40.8,30.50,NNW,338,4.0,6.0,44,0.00,,,0.00,meteohub,2013-05-28 14:46:00,
2013-05-28 08:51:00,63.7,41.4,30.50,NNW,338,3.0,6.0,44,0.00,,,0.00,meteohub,2013-05-28 14:51:00,
2013-05-28 08:56:00,64.9,41.9,30.50,NNW,338,0.0,5.0,43,0.00,,,0.00,meteohub,2013-05-28 14:56:00,
2013-05-28 09:01:00,65.3,42.3,30.50,NNW,338,4.0,5.0,43,0.00,,,0.00,meteohub,2013-05-28 15:01:00,
2013-05-28 09:06:00,66.0,43.0,30.50,WNW,292,3.0,5.0,43,0.00,,,0.00,meteohub,2013-05-28 15:06:00,
2013-05-28 09:11:00,66.0,43.0,30.50,NW,315,5.0,5.0,43,0.00,,,0.00,meteohub,2013-05-28 15:11:00,
2013-05-28 10:02:00,70.5,44.4,30.44,SE,135,5.0,-999.0,39,0.00,,,0.00,meteohub,2013-05-28 16:02:00,
2013-05-28 10:07:00,70.3,44.2,30.44,SE,135,4.0,6.0,39,0.00,,,0.00,meteohub,2013-05-28 16:07:00,
2013-05-28 10:12:00,71.1,44.2,30.44,North,0,4.0,6.0,38,0.00,,,0.00,meteohub,2013-05-28 16:12:00,
2013-05-28 10:17:00,71.8,44.8,30.47,SSE,158,4.0,6.0,38,0.00,,,0.00,meteohub,2013-05-28 16:17:00,
2013-05-28 10:22:00,71.4,44.6,30.47,SSE,158,4.0,5.0,38,0.00,,,0.00,meteohub,2013-05-28 16:22:00,
2013-05-28 10:27:00,72.7,45.0,30.47,South,180,1.0,5.0,37,0.00,,,0.00,meteohub,2013-05-28 16:27:00,
2013-05-28 10:33:00,71.1,43.5,30.47,SSW,202,5.0,5.0,37,0.00,,,0.00,meteohub,2013-05-28 16:33:00,
2013-05-28 10:38:00,71.4,44.6,30.47,SSW,202,6.0,6.0,38,0.00,,,0.00,meteohub,2013-05-28 16:38:00,
2013-05-28 10:43:00,71.4,43.9,30.47,SSE,158,4.0,7.0,37,0.00,,,0.00,meteohub,2013-05-28 16:43:00,
2013-05-28 10:48:00,71.8,44.8,30.47,ESE,112,3.0,8.0,38,0.00,,,0.00,meteohub,2013-05-28 16:48:00,
2013-05-28 10:53:00,71.4,44.6,30.47,SSE,158,5.0,8.0,38,0.00,,,0.00,meteohub,2013-05-28 16:53:00,
2013-05-28 10:58:00,70.0,43.2,30.47,SSW,202,4.0,8.0,38,0.00,,,0.00,meteohub,2013-05-28 16:58:00,
2013-05-28 11:03:00,70.5,43.7,30.47,South,180,4.0,6.0,38,0.00,,,0.00,meteohub,2013-05-28 17:03:00,
2013-05-28 11:08:00,70.9,44.1,30.47,ESE,112,1.0,6.0,38,0.00,,,0.00,meteohub,2013-05-28 17:08:00,
2013-05-28 11:14:00,70.2,43.3,30.47,SSE,158,4.0,9.0,38,0.00,,,0.00,meteohub,2013-05-28 17:14:00,
2013-05-28 11:19:00,69.8,43.2,30.47,SSE,158,5.0,9.0,38,0.00,,,0.00,meteohub,2013-05-28 17:19:00,
2013-05-28 11:24:00,70.0,43.9,30.47,SSE,158,5.0,7.0,39,0.00,,,0.00,meteohub,2013-05-28 17:24:00,
2013-05-28 11:29:00,70.0,43.9,30.47,SE,135,5.0,8.0,39,0.00,,,0.00,meteohub,2013-05-28 17:29:00,
2013-05-28 11:34:00,70.7,45.1,30.44,SSE,158,7.0,8.0,40,0.00,,,0.00,meteohub,2013-05-28 17:34:00,
2013-05-28 11:39:00,70.9,44.8,30.44,SSE,158,3.0,8.0,39,0.00,,,0.00,meteohub,2013-05-28 17:39:00,
2013-05-28 11:44:00,71.2,45.0,30.44,ESE,112,2.0,9.0,39,0.00,,,0.00,meteohub,2013-05-28 17:44:00,
2013-05-28 11:49:00,72.0,45.0,30.44,SSW,202,8.0,9.0,38,0.00,,,0.00,meteohub,2013-05-28 17:49:00,
2013-05-28 11:54:00,72.3,46.0,30.44,WNW,292,3.0,9.0,39,0.00,,,0.00,meteohub,2013-05-28 17:54:00,
2013-05-28 11:59:00,72.3,45.3,30.44,SSW,202,4.0,8.0,38,0.00,,,0.00,meteohub,2013-05-28 17:59:00,
2013-05-28 12:04:00,73.4,45.5,30.44,SSE,158,6.0,10.0,37,0.00,,,0.00,meteohub,2013-05-28 18:04:00,
2013-05-28 12:09:00,73.6,45.0,30.44,SSW,202,8.0,10.0,36,0.00,,,0.00,meteohub,2013-05-28 18:09:00,
2013-05-28 12:14:00,73.2,45.3,30.44,SSW,202,8.0,10.0,37,0.00,,,0.00,meteohub,2013-05-28 18:14:00,
2013-05-28 12:20:00,72.3,45.3,30.44,SSW,202,6.0,10.0,38,0.00,,,0.00,meteohub,2013-05-28 18:20:00,
2013-05-28 12:25:00,70.9,43.3,30.44,SSW,202,5.0,10.0,37,0.00,,,0.00,meteohub,2013-05-28 18:25:00,
2013-05-28 12:30:00,71.6,44.1,30.44,SSW,202,4.0,8.0,37,0.00,,,0.00,meteohub,2013-05-28 18:30:00,
2013-05-28 12:35:00,72.1,44.4,30.44,SSW,202,4.0,12.0,37,0.00,,,0.00,meteohub,2013-05-28 18:35:00,
2013-05-28 12:40:00,72.7,45.7,30.44,SSE,158,6.0,12.0,38,0.00,,,0.00,meteohub,2013-05-28 18:40:00,
2013-05-28 12:45:00,73.0,46.0,30.44,SSW,202,4.0,8.0,38,0.00,,,0.00,meteohub,2013-05-28 18:45:00,
2013-05-28 12:50:00,73.2,46.0,30.41,SSW,202,4.0,10.0,38,0.00,,,0.00,meteohub,2013-05-28 18:50:00,
2013-05-28 12:55:00,72.7,45.7,30.41,SSE,158,8.0,11.0,38,0.00,,,0.00,meteohub,2013-05-28 18:55:00,
2013-05-28 13:00:00,71.8,44.8,30.41,SSE,158,8.0,11.0,38,0.00,,,0.00,meteohub,2013-05-28 19:00:00,
2013-05-28 13:05:00,71.4,45.1,30.41,SSE,158,4.0,11.0,39,0.00,,,0.00,meteohub,2013-05-28 19:05:00,
2013-05-28 13:10:00,71.2,45.0,30.41,South,180,3.0,9.0,39,0.00,,,0.00,meteohub,2013-05-28 19:10:00,
2013-05-28 13:15:00,70.9,45.3,30.41,SSW,202,6.0,9.0,40,0.00,,,0.00,meteohub,2013-05-28 19:15:00,
2013-05-28 13:20:00,71.8,44.8,30.41,ESE,112,1.0,9.0,38,0.00,,,0.00,meteohub,2013-05-28 19:20:00,
2013-05-28 13:25:00,74.5,46.6,30.41,WNW,292,0.0,9.0,37,0.00,,,0.00,meteohub,2013-05-28 19:25:00,
2013-05-28 13:30:00,75.0,46.2,30.41,NNE,22,3.0,8.0,36,0.00,,,0.00,meteohub,2013-05-28 19:30:00,
2013-05-28 13:36:00,74.7,46.0,30.41,WNW,292,3.0,4.0,36,0.00,,,0.00,meteohub,2013-05-28 19:36:00,
2013-05-28 13:41:00,76.8,47.8,30.41,SE,135,2.0,4.0,36,0.00,,,0.00,meteohub,2013-05-28 19:41:00,
2013-05-28 13:46:00,77.2,47.5,30.41,ESE,112,4.0,9.0,35,0.00,,,0.00,meteohub,2013-05-28 19:46:00,
2013-05-28 13:51:00,78.4,48.6,30.41,ESE,112,2.0,9.0,35,0.00,,,0.00,meteohub,2013-05-28 19:51:00,
2013-05-28 13:56:00,77.7,47.1,30.41,WSW,248,4.0,9.0,34,0.00,,,0.00,meteohub,2013-05-28 19:56:00,
2013-05-28 14:01:00,77.4,46.8,30.41,WSW,248,3.0,10.0,34,0.00,,,0.00,meteohub,2013-05-28 20:01:00,
2013-05-28 14:06:00,79.2,47.7,30.41,SSW,202,1.0,10.0,33,0.00,,,0.00,meteohub,2013-05-28 20:06:00,
2013-05-28 14:11:00,78.8,47.3,30.41,SSE,158,7.0,8.0,33,0.00,,,0.00,meteohub,2013-05-28 20:11:00,
2013-05-28 14:16:00,77.9,46.6,30.38,SSW,202,2.0,8.0,33,0.00,,,0.00,meteohub,2013-05-28 20:16:00,
2013-05-28 14:21:00,79.0,47.5,30.38,WSW,248,3.0,8.0,33,0.00,,,0.00,meteohub,2013-05-28 20:21:00,
2013-05-28 14:26:00,81.1,48.6,30.38,SSW,202,3.0,8.0,32,0.00,,,0.00,meteohub,2013-05-28 20:26:00,
2013-05-28 14:31:00,79.2,46.8,30.38,South,180,5.0,8.0,32,0.00,,,0.00,meteohub,2013-05-28 20:31:00,
2013-05-28 14:37:00,79.7,47.3,30.38,NNE,22,3.0,8.0,32,0.00,,,0.00,meteohub,2013-05-28 20:37:00,
2013-05-28 14:42:00,80.2,47.7,30.38,NNW,338,3.0,8.0,32,0.00,,,0.00,meteohub,2013-05-28 20:42:00,
2013-05-28 14:47:00,80.6,48.0,30.38,WNW,292,1.0,11.0,32,0.00,,,0.00,meteohub,2013-05-28 20:47:00,
2013-05-28 14:52:00,82.8,49.1,30.38,ESE,112,4.0,11.0,31,0.00,,,0.00,meteohub,2013-05-28 20:52:00,
2013-05-28 14:57:00,82.0,48.4,30.38,SSW,202,2.0,8.0,31,0.00,,,0.00,meteohub,2013-05-28 20:57:00,
2013-05-28 15:02:00,81.7,48.2,30.38,SSW,202,6.0,9.0,31,0.00,,,0.00,meteohub,2013-05-28 21:02:00,
2013-05-28 15:07:00,81.5,47.1,30.38,ESE,112,3.0,9.0,30,0.00,,,0.00,meteohub,2013-05-28 21:07:00,
2013-05-28 15:12:00,81.7,48.2,30.38,East,90,3.0,6.0,31,0.00,,,0.00,meteohub,2013-05-28 21:12:00,
2013-05-28 15:17:00,81.5,48.0,30.38,SSW,202,6.0,6.0,31,0.00,,,0.00,meteohub,2013-05-28 21:17:00,
2013-05-28 15:22:00,81.5,48.0,30.38,SSW,202,3.0,5.0,31,0.00,,,0.00,meteohub,2013-05-28 21:22:00,
2013-05-28 15:27:00,82.0,47.5,30.38,SSE,158,10.0,10.0,30,0.00,,,0.00,meteohub,2013-05-28 21:27:00,
2013-05-28 15:32:00,81.0,46.6,30.35,SSW,202,9.0,15.0,30,0.00,,,0.00,meteohub,2013-05-28 21:32:00,
2013-05-28 15:37:00,78.3,36.3,30.35,South,180,20.0,20.0,22,0.00,,,0.00,meteohub,2013-05-28 21:37:00,
2013-05-28 15:42:00,77.0,35.2,30.35,ESE,112,11.0,20.0,22,0.00,,,0.00,meteohub,2013-05-28 21:42:00,
2013-05-28 15:47:00,75.7,35.4,30.35,SE,135,8.0,23.0,23,0.00,,,0.00,meteohub,2013-05-28 21:47:00,
2013-05-28 15:52:00,72.7,32.7,30.35,South,180,27.0,27.0,23,0.00,,,0.00,meteohub,2013-05-28 21:52:00,
2013-05-28 15:57:00,72.1,31.3,30.35,South,180,6.0,37.0,22,0.00,,,0.00,meteohub,2013-05-28 21:57:00,
2013-05-28 16:02:00,73.0,35.2,30.35,NNW,338,5.0,37.0,25,0.00,,,0.00,meteohub,2013-05-28 22:02:00,
2013-05-28 16:07:00,72.5,35.8,30.38,East,90,4.0,37.0,26,0.00,,,0.00,meteohub,2013-05-28 22:07:00,
2013-05-28 16:12:00,72.1,36.3,30.38,SSW,202,4.0,11.0,27,0.00,,,0.00,meteohub,2013-05-28 22:12:00,
2013-05-28 16:17:00,74.7,39.4,30.32,WSW,248,1.0,10.0,28,0.00,,,0.00,meteohub,2013-05-28 22:17:00,
2013-05-28 16:22:00,74.7,42.8,30.32,WNW,292,2.0,8.0,32,0.00,,,0.00,meteohub,2013-05-28 22:22:00,
2013-05-28 16:27:00,73.0,42.3,30.32,NNW,338,3.0,7.0,33,0.00,,,0.00,meteohub,2013-05-28 22:27:00,
2013-05-28 16:32:00,73.9,42.3,30.35,SSE,158,1.0,4.0,32,0.00,,,0.00,meteohub,2013-05-28 22:32:00,
2013-05-28 16:37:00,77.0,44.1,30.35,WNW,292,2.0,3.0,31,0.00,,,0.00,meteohub,2013-05-28 22:37:00,
2013-05-28 16:42:00,79.5,46.2,30.35,SSW,202,2.0,6.0,31,0.00,,,0.00,meteohub,2013-05-28 22:42:00,
2013-05-28 16:47:00,79.7,45.5,30.35,SSW,202,4.0,6.0,30,0.00,,,0.00,meteohub,2013-05-28 22:47:00,
2013-05-28 16:52:00,80.6,44.4,30.35,SSE,158,10.0,10.0,28,0.00,,,0.00,meteohub,2013-05-28 22:52:00,
2013-05-28 16:57:00,80.6,40.5,30.35,SSE,158,6.0,10.0,24,0.00,,,0.00,meteohub,2013-05-28 22:57:00,
2013-05-28 17:02:00,80.6,42.6,30.35,SSW,202,3.0,10.0,26,0.00,,,0.00,meteohub,2013-05-28 23:02:00,
2013-05-28 17:07:00,80.4,39.2,30.32,SSE,158,5.0,10.0,23,0.00,,,0.00,meteohub,2013-05-28 23:07:00,
2013-05-28 17:12:00,80.6,40.5,30.32,SSW,202,4.0,8.0,24,0.00,,,0.00,meteohub,2013-05-28 23:12:00,
2013-05-28 17:17:00,80.4,36.9,30.32,SSW,202,4.0,10.0,21,0.00,,,0.00,meteohub,2013-05-28 23:17:00,
2013-05-28 17:22:00,80.6,38.3,30.32,NW,315,3.0,10.0,22,0.00,,,0.00,meteohub,2013-05-28 23:22:00,
2013-05-28 17:27:00,80.4,36.9,30.32,SSW,202,5.0,10.0,21,0.00,,,0.00,meteohub,2013-05-28 23:27:00,
2013-05-28 17:32:00,79.7,35.1,30.32,WNW,292,2.0,11.0,20,0.00,,,0.00,meteohub,2013-05-28 23:32:00,
2013-05-28 17:37:00,79.7,35.1,30.32,SSW,202,2.0,11.0,20,0.00,,,0.00,meteohub,2013-05-28 23:37:00,
2013-05-28 17:42:00,79.7,35.1,30.32,SSW,202,3.0,11.0,20,0.00,,,0.00,meteohub,2013-05-28 23:42:00,
2013-05-28 17:47:00,80.2,35.6,30.32,WSW,248,2.0,8.0,20,0.00,,,0.00,meteohub,2013-05-28 23:47:00,
2013-05-28 17:52:00,81.0,32.2,30.32,WNW,292,4.0,6.0,17,0.00,,,0.00,meteohub,2013-05-28 23:52:00,
2013-05-28 17:57:00,81.5,36.7,30.32,SSW,202,5.0,5.0,20,0.00,,,0.00,meteohub,2013-05-28 23:57:00,
2013-05-28 18:02:00,81.1,-15.0,-100.00,WNW,292,4.0,5.0,2,0.00,,,0.00,meteohub,2013-05-29 00:02:00,
2013-05-28 18:07:00,81.0,-15.0,30.32,SSW,202,2.0,7.0,2,0.00,,,0.00,meteohub,2013-05-29 00:07:00,
2013-05-28 18:12:00,80.2,-15.5,30.32,SSW,202,6.0,8.0,2,0.00,,,0.00,meteohub,2013-05-29 00:12:00,
2013-05-28 18:17:00,80.2,-15.5,30.32,WNW,292,2.0,8.0,2,0.00,,,0.00,meteohub,2013-05-29 00:17:00,
2013-05-28 18:22:00,79.7,-15.9,30.32,WNW,292,3.0,8.0,2,0.00,,,0.00,meteohub,2013-05-29 00:22:00,
2013-05-28 18:27:00,78.1,-16.8,30.32,SSW,202,2.0,6.0,2,0.00,,,0.00,meteohub,2013-05-29 00:27:00,
2013-05-28 18:32:00,77.5,-17.1,30.30,SSE,158,3.0,4.0,2,0.00,,,0.00,meteohub,2013-05-29 00:32:00,
2013-05-28 18:37:00,76.8,11.1,30.30,SSE,158,4.0,4.0,8,0.00,,,0.00,meteohub,2013-05-29 00:37:00,
2013-05-28 18:42:00,77.4,26.2,30.30,SSE,158,3.0,5.0,15,0.00,,,0.00,meteohub,2013-05-29 00:42:00,
2013-05-28 18:47:00,76.6,33.8,30.32,SSW,202,3.0,5.0,21,0.00,,,0.00,meteohub,2013-05-29 00:47:00,
2013-05-28 18:53:00,76.8,34.0,30.32,SSE,158,3.0,5.0,21,0.00,,,0.00,meteohub,2013-05-29 00:53:00,
2013-05-28 18:58:00,76.5,32.5,30.32,SSE,158,3.0,4.0,20,0.00,,,0.00,meteohub,2013-05-29 00:58:00,
2013-05-28 19:03:00,75.4,31.6,30.32,SSE,158,2.0,4.0,20,0.00,,,0.00,meteohub,2013-05-29 01:03:00,
2013-05-28 19:08:00,74.8,32.4,30.32,SSE,158,0.0,4.0,21,0.00,,,0.00,meteohub,2013-05-29 01:08:00,
2013-05-28 19:13:00,74.1,34.0,30.32,SSE,158,0.0,4.0,23,0.00,,,0.00,meteohub,2013-05-29 01:13:00,
2013-05-28 19:18:00,73.4,38.3,30.30,NNW,338,0.0,4.0,28,0.00,,,0.00,meteohub,2013-05-29 01:18:00,
2013-05-28 19:23:00,72.1,39.9,30.30,NNE,22,3.0,3.0,31,0.00,,,0.00,meteohub,2013-05-29 01:23:00,
2013-05-28 19:28:00,71.6,34.9,30.30,ENE,68,2.0,3.0,26,0.00,,,0.00,meteohub,2013-05-29 01:28:00,
2013-05-28 19:33:00,72.0,36.1,30.32,ESE,112,2.0,3.0,27,0.00,,,0.00,meteohub,2013-05-29 01:33:00,
2013-05-28 19:38:00,71.4,31.8,30.32,SSE,158,2.0,3.0,23,0.00,,,0.00,meteohub,2013-05-29 01:38:00,
2013-05-28 19:43:00,70.2,32.7,30.32,ENE,68,2.0,3.0,25,0.00,,,0.00,meteohub,2013-05-29 01:43:00,
2013-05-28 19:48:00,69.1,31.8,30.32,ESE,112,0.0,3.0,25,0.00,,,0.00,meteohub,2013-05-29 01:48:00,
2013-05-28 19:54:00,68.7,30.6,30.32,WNW,292,1.0,3.0,24,0.00,,,0.00,meteohub,2013-05-29 01:54:00,
2013-05-28 19:59:00,66.7,33.4,30.32,NNW,338,1.0,4.0,29,0.00,,,0.00,meteohub,2013-05-29 01:59:00,
2013-05-28 20:04:00,66.2,34.0,30.32,NNW,338,3.0,4.0,30,0.00,,,0.00,meteohub,2013-05-29 02:04:00,
2013-05-28 20:09:00,65.8,35.2,30.32,ESE,112,0.0,4.0,32,0.00,,,0.00,meteohub,2013-05-29 02:09:00,
2013-05-28 20:14:00,64.6,35.6,30.32,NNW,338,3.0,4.0,34,0.00,,,0.00,meteohub,2013-05-29 02:14:00,
2013-05-28 20:19:00,64.8,35.8,30.35,NNW,338,3.0,4.0,34,0.00,,,0.00,meteohub,2013-05-29 02:19:00,
2013-05-28 20:24:00,63.5,36.1,30.35,NNE,22,5.0,5.0,36,0.00,,,0.00,meteohub,2013-05-29 02:24:00,
2013-05-28 20:29:00,63.9,36.5,30.35,NNE,22,5.0,5.0,36,0.00,,,0.00,meteohub,2013-05-29 02:29:00,
2013-05-28 20:34:00,64.0,36.5,30.35,NNE,22,3.0,6.0,36,0.00,,,0.00,meteohub,2013-05-29 02:34:00,
2013-05-28 20:39:00,63.7,37.0,30.35,NNW,338,2.0,6.0,37,0.00,,,0.00,meteohub,2013-05-29 02:39:00,
2013-05-28 20:44:00,62.1,35.6,30.35,NNE,22,2.0,6.0,37,0.00,,,0.00,meteohub,2013-05-29 02:44:00,
2013-05-28 20:49:00,63.1,35.8,30.35,NNW,338,3.0,6.0,36,0.00,,,0.00,meteohub,2013-05-29 02:49:00,
2013-05-28 20:54:00,62.8,35.4,30.35,East,90,2.0,5.0,36,0.00,,,0.00,meteohub,2013-05-29 02:54:00,
2013-05-28 20:59:00,63.0,34.9,30.35,NNE,22,4.0,5.0,35,0.00,,,0.00,meteohub,2013-05-29 02:59:00,
2013-05-28 21:04:00,64.0,36.0,30.35,NNW,338,4.0,5.0,35,0.00,,,0.00,meteohub,2013-05-29 03:04:00,
2013-05-28 21:10:00,64.0,35.1,30.35,NNW,338,4.0,5.0,34,0.00,,,0.00,meteohub,2013-05-29 03:10:00,
2013-05-28 21:15:00,63.0,34.2,30.35,NNW,338,3.0,6.0,34,0.00,,,0.00,meteohub,2013-05-29 03:15:00,
2013-05-28 21:20:00,62.8,33.3,30.35,NNW,338,6.0,6.0,33,0.00,,,0.00,meteohub,2013-05-29 03:20:00,
2013-05-28 21:25:00,63.7,34.2,30.35,NNW,338,4.0,6.0,33,0.00,,,0.00,meteohub,2013-05-29 03:25:00,
2013-05-28 21:30:00,63.1,32.9,30.35,NNE,22,6.0,7.0,32,0.00,,,0.00,meteohub,2013-05-29 03:30:00,
2013-05-28 21:35:00,63.5,32.4,30.35,NNW,338,7.0,7.0,31,0.00,,,0.00,meteohub,2013-05-29 03:35:00,
2013-05-28 21:40:00,64.2,33.8,30.35,NNW,338,5.0,11.0,32,0.00,,,0.00,meteohub,2013-05-29 03:40:00,
2013-05-28 21:45:00,63.3,33.8,30.35,NNW,338,4.0,11.0,33,0.00,,,0.00,meteohub,2013-05-29 03:45:00,
2013-05-28 21:50:00,62.8,33.3,30.35,NNW,338,3.0,11.0,33,0.00,,,0.00,meteohub,2013-05-29 03:50:00,
2013-05-28 21:55:00,62.8,33.3,30.35,NNW,338,5.0,5.0,33,0.00,,,0.00,meteohub,2013-05-29 03:55:00,
2013-05-28 22:00:00,63.3,33.8,30.35,NNW,338,4.0,6.0,33,0.00,,,0.00,meteohub,2013-05-29 04:00:00,
2013-05-28 22:01:00,63.1,34.3,30.35,NNW,338,3.0,6.0,34,0.00,,,0.00,meteohub,2013-05-29 04:01:00,
2013-05-28 22:02:00,63.1,34.3,30.35,NNW,338,3.0,6.0,34,0.00,,,0.00,meteohub,2013-05-29 04:02:00,
2013-05-28 22:03:00,63.3,33.8,30.35,NNW,338,7.0,7.0,33,0.00,,,0.00,meteohub,2013-05-29 04:03:00,
2013-05-28 22:07:00,63.7,34.2,30.35,NNW,338,5.0,7.0,33,0.00,,,0.00,meteohub,2013-05-29 04:07:00,
2013-05-28 22:12:00,64.9,35.2,30.35,NNW,338,8.0,8.0,33,0.00,,,0.00,meteohub,2013-05-29 04:12:00,
2013-05-28 22:17:00,65.1,33.8,30.35,NNW,338,6.0,9.0,31,0.00,,,0.00,meteohub,2013-05-29 04:17:00,
2013-05-28 22:22:00,64.6,35.6,30.35,NNW,338,4.0,9.0,34,0.00,,,0.00,meteohub,2013-05-29 04:22:00,
2013-05-28 22:27:00,63.0,35.6,30.35,ENE,68,5.0,9.0,36,0.00,,,0.00,meteohub,2013-05-29 04:27:00,
2013-05-28 22:32:00,63.3,36.0,30.35,NNE,22,6.0,6.0,36,0.00,,,0.00,meteohub,2013-05-29 04:32:00,
2013-05-28 22:37:00,63.0,36.3,30.35,NNE,22,5.0,9.0,37,0.00,,,0.00,meteohub,2013-05-29 04:37:00,
2013-05-28 22:42:00,62.6,37.4,30.35,NNE,22,6.0,9.0,39,0.00,,,0.00,meteohub,2013-05-29 04:42:00,
2013-05-28 22:47:00,61.9,38.5,30.35,NNW,338,6.0,9.0,42,0.00,,,0.00,meteohub,2013-05-29 04:47:00,
2013-05-28 22:52:00,60.8,38.8,30.35,NNE,22,4.0,8.0,44,0.00,,,0.00,meteohub,2013-05-29 04:52:00,
2013-05-28 22:57:00,60.6,39.2,30.35,North,0,6.0,8.0,45,0.00,,,0.00,meteohub,2013-05-29 04:57:00,
2013-05-28 23:02:00,60.6,39.7,30.35,NNW,338,6.0,8.0,46,0.00,,,0.00,meteohub,2013-05-29 05:02:00,
2013-05-28 23:08:00,59.9,38.5,30.35,NNE,22,6.0,8.0,45,0.00,,,0.00,meteohub,2013-05-29 05:08:00,
2013-05-28 23:13:00,60.1,39.7,30.35,NNE,22,5.0,8.0,47,0.00,,,0.00,meteohub,2013-05-29 05:13:00,
2013-05-28 23:18:00,60.3,39.4,30.38,NNW,338,1.0,8.0,46,0.00,,,0.00,meteohub,2013-05-29 05:18:00,
2013-05-28 23:23:00,60.1,39.7,30.38,NNE,22,3.0,8.0,47,0.00,,,0.00,meteohub,2013-05-29 05:23:00,
2013-05-28 23:28:00,59.9,39.6,30.38,NNW,338,7.0,8.0,47,0.00,,,0.00,meteohub,2013-05-29 05:28:00,
2013-05-28 23:33:00,59.7,39.6,30.35,NNE,22,10.0,10.0,47,0.00,,,0.00,meteohub,2013-05-29 05:33:00,
2013-05-28 23:38:00,59.2,40.6,30.35,NNW,338,6.0,10.0,50,0.00,,,0.00,meteohub,2013-05-29 05:38:00,
2013-05-28 23:45:00,58.3,43.5,-100.00,NNW,338,13.0,13.0,58,0.00,,,0.00,meteohub,2013-05-29 05:45:00,
2013-05-28 23:52:00,57.6,45.1,-100.00,NNW,338,10.0,13.0,63,0.00,,,0.00,meteohub,2013-05-29 05:52:00,
2013-05-28 23:59:00,57.2,45.1,30.35,NNW,338,6.0,13.0,64,0.00,,,0.00,meteohub,2013-05-29 05:59:00,